| time (UTC) | temp F | wind direction | speed MPH | gust MPH | rain 1hr in | rain 24hr in | rain mn in | humidity % | barometer mb |
| 20260506035511 | 63 | 336 | 4.0 | 12.0 | 0.00 | 0.00 | 0.00 | 75 | 1009.3 |
| 20260506035010 | 64 | 32 | 3.0 | 11.0 | 0.00 | 0.00 | 0.00 | 75 | 1009.2 |
| 20260506034531 | 64 | 25 | 3.0 | 13.0 | 0.00 | 0.00 | 0.00 | 75 | 1009.2 |
| 20260506034010 | 64 | 6 | 4.0 | 13.0 | 0.00 | 0.00 | 0.00 | 75 | 1009.3 |
| 20260506033509 | 65 | 13 | 5.0 | 12.0 | 0.00 | 0.00 | 0.00 | 75 | 1009.0 |
| 20260506033030 | 65 | 342 | 4.0 | 11.0 | 0.00 | 0.00 | 0.00 | 75 | 1009.1 |
| 20260506032511 | 65 | 12 | 2.0 | 13.0 | 0.00 | 0.00 | 0.00 | 75 | 1009.0 |
| 20260506032010 | 65 | 36 | 6.0 | 13.0 | 0.00 | 0.00 | 0.00 | 74 | 1009.1 |
| 20260506031530 | 66 | 355 | 3.0 | 17.0 | 0.00 | 0.00 | 0.00 | 74 | 1008.9 |
| 20260506031011 | 67 | 355 | 8.0 | 17.0 | 0.00 | 0.00 | 0.00 | 74 | 1009.0 |
| 20260506030515 | 67 | 350 | 1.0 | 13.0 | 0.00 | 0.00 | 0.00 | 73 | 1008.9 |
| 20260506030030 | 68 | 24 | 1.0 | 13.0 | 0.00 | 0.00 | 0.00 | 73 | 1008.7 |
| 20260506025511 | 68 | 342 | 4.0 | 16.0 | 0.00 | 0.00 | 0.00 | 73 | 1008.7 |
| 20260506025009 | 68 | 26 | 4.0 | 16.0 | 0.00 | 0.00 | 0.00 | 73 | 1008.6 |
| 20260506024528 | 68 | 342 | 4.0 | 14.0 | 0.00 | 0.00 | 0.00 | 73 | 1008.4 |
| 20260506024014 | 69 | 6 | 8.0 | 14.0 | 0.00 | 0.00 | 0.00 | 72 | 1008.3 |
| 20260506023510 | 69 | 340 | 4.0 | 13.0 | 0.00 | 0.00 | 0.00 | 72 | 1008.2 |
| 20260506023030 | 69 | 350 | 4.0 | 13.0 | 0.00 | 0.00 | 0.00 | 72 | 1007.9 |
| 20260506022510 | 69 | 9 | 4.0 | 13.0 | 0.00 | 0.00 | 0.00 | 72 | 1007.7 |
| 20260506022011 | 69 | 350 | 4.0 | 14.0 | 0.00 | 0.00 | 0.00 | 71 | 1007.7 |
| 20260506021528 | 70 | 20 | 7.0 | 18.0 | 0.00 | 0.00 | 0.00 | 71 | 1007.5 |
| 20260506021015 | 70 | 16 | 5.0 | 18.0 | 0.00 | 0.00 | 0.00 | 71 | 1007.5 |
| 20260506020515 | 71 | 350 | 4.0 | 11.0 | 0.00 | 0.00 | 0.00 | 71 | 1007.1 |
| 20260506020030 | 71 | 355 | 3.0 | 11.0 | 0.00 | 0.00 | 0.00 | 70 | 1007.0 |
| 20260506015512 | 72 | 25 | 1.0 | 9.0 | 0.00 | 0.00 | 0.00 | 70 | 1006.8 |
| 20260506015011 | 72 | 350 | 2.0 | 9.0 | 0.00 | 0.00 | 0.00 | 70 | 1006.9 |
| 20260506014528 | 72 | 34 | 2.0 | 9.0 | 0.00 | 0.00 | 0.00 | 69 | 1006.9 |
| 20260506014011 | 72 | 3 | 3.0 | 8.0 | 0.00 | 0.00 | 0.00 | 69 | 1006.8 |
| 20260506013511 | 72 | 0 | 2.0 | 12.0 | 0.00 | 0.00 | 0.00 | 69 | 1006.8 |
| 20260506013032 | 72 | 355 | 2.0 | 12.0 | 0.00 | 0.00 | 0.00 | 68 | 1006.6 |
| 20260506012512 | 72 | 355 | 6.0 | 12.0 | 0.00 | 0.00 | 0.00 | 67 | 1006.7 |
| 20260506012015 | 72 | 342 | 1.0 | 9.0 | 0.00 | 0.00 | 0.00 | 67 | 1006.4 |
| 20260506011539 | 73 | 32 | 1.0 | 13.0 | 0.00 | 0.00 | 0.00 | 68 | 1006.5 |
| 20260506011017 | 73 | 323 | 3.0 | 13.0 | 0.00 | 0.00 | 0.00 | 68 | 1006.5 |
| 20260506010511 | 73 | 355 | 5.0 | 13.0 | 0.00 | 0.00 | 0.00 | 67 | 1006.3 |
| 20260506010029 | 73 | 1 | 4.0 | 11.0 | 0.00 | 0.00 | 0.00 | 67 | 1006.3 |
| 20260506005513 | 73 | 9 | 6.0 | 11.0 | 0.00 | 0.00 | 0.00 | 67 | 1006.4 |
| 20260506005010 | 73 | 350 | 3.0 | 13.0 | 0.00 | 0.00 | 0.00 | 66 | 1006.0 |
| 20260506004539 | 73 | 24 | 3.0 | 13.0 | 0.00 | 0.00 | 0.00 | 66 | 1005.8 |
| 20260506004017 | 73 | 350 | 6.0 | 13.0 | 0.00 | 0.00 | 0.00 | 66 | 1006.2 |
| 20260506003511 | 74 | 7 | 3.0 | 10.0 | 0.00 | 0.00 | 0.00 | 66 | 1006.1 |
| 20260506003031 | 74 | 345 | 2.0 | 9.0 | 0.00 | 0.00 | 0.00 | 66 | 1006.0 |
| 20260506002514 | 75 | 26 | 1.0 | 9.0 | 0.00 | 0.00 | 0.00 | 66 | 1006.0 |
| 20260506002011 | 75 | 16 | 3.0 | 15.0 | 0.00 | 0.00 | 0.00 | 66 | 1005.8 |
| 20260506001532 | 76 | 350 | 5.0 | 19.0 | 0.00 | 0.00 | 0.00 | 66 | 1005.6 |
| 20260506001011 | 76 | 341 | 7.0 | 19.0 | 0.00 | 0.00 | 0.00 | 65 | 1005.6 |
| 20260506000512 | 76 | 18 | 9.0 | 19.0 | 0.00 | 0.00 | 0.00 | 64 | 1005.5 |
| 20260506000027 | 77 | 337 | 10.0 | 18.0 | 0.00 | 0.00 | 0.00 | 63 | 1005.4 |
| 20260505235510 | 78 | 340 | 8.0 | 16.0 | 0.00 | 0.00 | 0.00 | 63 | 1005.2 |
| 20260505235010 | 78 | 326 | 7.0 | 18.0 | 0.00 | 0.00 | 0.00 | 63 | 1005.3 |
| 20260505234530 | 78 | 323 | 8.0 | 18.0 | 0.00 | 0.00 | 0.00 | 62 | 1005.1 |
| 20260505234014 | 78 | 355 | 6.0 | 22.0 | 0.00 | 0.00 | 0.00 | 62 | 1005.2 |
| 20260505233511 | 78 | 355 | 11.0 | 22.0 | 0.00 | 0.00 | 0.00 | 61 | 1005.2 |
| 20260505233033 | 79 | 342 | 10.0 | 20.0 | 0.00 | 0.00 | 0.00 | 61 | 1005.2 |
| 20260505232515 | 80 | 288 | 10.0 | 19.0 | 0.00 | 0.00 | 0.00 | 60 | 1005.3 |
| 20260505232011 | 82 | 342 | 6.0 | 18.0 | 0.00 | 0.00 | 0.00 | 59 | 1005.0 |
| 20260505231538 | 83 | 350 | 8.0 | 17.0 | 0.00 | 0.00 | 0.00 | 57 | 1004.8 |
| 20260505231011 | 83 | 339 | 9.0 | 17.0 | 0.00 | 0.00 | 0.00 | 56 | 1004.9 |
| 20260505230513 | 83 | 355 | 7.0 | 16.0 | 0.00 | 0.00 | 0.00 | 54 | 1004.6 |
| 20260505230033 | 84 | 310 | 9.0 | 16.0 | 0.00 | 0.00 | 0.00 | 52 | 1004.6 |
| 20260505225512 | 84 | 355 | 9.0 | 16.0 | 0.00 | 0.00 | 0.00 | 51 | 1004.3 |
| 20260505225013 | 85 | 355 | 6.0 | 16.0 | 0.00 | 0.00 | 0.00 | 50 | 1004.2 |
| 20260505224528 | 85 | 2 | 7.0 | 16.0 | 0.00 | 0.00 | 0.00 | 50 | 1004.4 |
| 20260505224010 | 85 | 325 | 6.0 | 17.0 | 0.00 | 0.00 | 0.00 | 50 | 1004.3 |
| 20260505223510 | 85 | 342 | 10.0 | 17.0 | 0.00 | 0.00 | 0.00 | 49 | 1004.3 |
| 20260505223033 | 86 | 322 | 10.0 | 17.0 | 0.00 | 0.00 | 0.00 | 49 | 1004.0 |
| 20260505222517 | 88 | 317 | 2.0 | 8.0 | 0.00 | 0.00 | 0.00 | 51 | 1003.9 |
| 20260505222016 | 89 | 263 | 3.0 | 8.0 | 0.00 | 0.00 | 0.00 | 52 | 1003.7 |
| 20260505221530 | 89 | 0 | 0.0 | 6.0 | 0.00 | 0.00 | 0.00 | 54 | 1003.7 |
| 20260505221013 | 89 | 303 | 2.0 | 9.0 | 0.00 | 0.00 | 0.00 | 53 | 1003.6 |
| 20260505220510 | 89 | 0 | 3.0 | 9.0 | 0.00 | 0.00 | 0.00 | 51 | 1003.6 |
| 20260505220046 | 88 | 309 | 3.0 | 9.0 | 0.00 | 0.00 | 0.00 | 52 | 1003.9 |
| 20260505215514 | 88 | 299 | 3.0 | 9.0 | 0.00 | 0.00 | 0.00 | 52 | 1003.9 |
| 20260505215009 | 89 | 269 | 2.0 | 8.0 | 0.00 | 0.00 | 0.00 | 52 | 1003.9 |
| 20260505214532 | 89 | 313 | 2.0 | 11.0 | 0.00 | 0.00 | 0.00 | 52 | 1004.0 |
| 20260505214011 | 90 | 263 | 3.0 | 11.0 | 0.00 | 0.00 | 0.00 | 52 | 1003.9 |
| 20260505213512 | 90 | 254 | 5.0 | 11.0 | 0.00 | 0.00 | 0.00 | 52 | 1003.9 |
| 20260505213032 | 89 | 280 | 2.0 | 12.0 | 0.00 | 0.00 | 0.00 | 54 | 1004.0 |
| 20260505212510 | 89 | 222 | 5.0 | 12.0 | 0.00 | 0.00 | 0.00 | 52 | 1004.0 |
| 20260505212017 | 89 | 194 | 6.0 | 13.0 | 0.00 | 0.00 | 0.00 | 53 | 1004.0 |
| 20260505211537 | 89 | 266 | 7.0 | 13.0 | 0.00 | 0.00 | 0.00 | 53 | 1004.0 |
| 20260505211010 | 89 | 242 | 4.0 | 10.0 | 0.00 | 0.00 | 0.00 | 54 | 1004.3 |
| 20260505210511 | 90 | 220 | 4.0 | 11.0 | 0.00 | 0.00 | 0.00 | 54 | 1004.5 |
| 20260505210028 | 90 | 234 | 2.0 | 16.0 | 0.00 | 0.00 | 0.00 | 53 | 1004.3 |
| 20260505205516 | 90 | 165 | 7.0 | 16.0 | 0.00 | 0.00 | 0.00 | 54 | 1004.2 |
| 20260505205012 | 90 | 259 | 3.0 | 15.0 | 0.00 | 0.00 | 0.00 | 56 | 1004.4 |
| 20260505204529 | 89 | 234 | 5.0 | 16.0 | 0.00 | 0.00 | 0.00 | 55 | 1004.6 |
| 20260505204010 | 89 | 242 | 8.0 | 16.0 | 0.00 | 0.00 | 0.00 | 55 | 1004.6 |
| 20260505203511 | 89 | 242 | 7.0 | 15.0 | 0.00 | 0.00 | 0.00 | 56 | 1004.5 |
| 20260505203028 | 89 | 227 | 3.0 | 15.0 | 0.00 | 0.00 | 0.00 | 57 | 1004.8 |
| 20260505202511 | 89 | 278 | 7.0 | 15.0 | 0.00 | 0.00 | 0.00 | 55 | 1004.9 |
| 20260505202010 | 89 | 272 | 6.0 | 13.0 | 0.00 | 0.00 | 0.00 | 55 | 1004.8 |
| 20260505201527 | 90 | 286 | 4.0 | 17.0 | 0.00 | 0.00 | 0.00 | 55 | 1004.9 |
| 20260505201012 | 88 | 256 | 7.0 | 17.0 | 0.00 | 0.00 | 0.00 | 57 | 1004.9 |
| 20260505200510 | 88 | 228 | 10.0 | 17.0 | 0.00 | 0.00 | 0.00 | 56 | 1004.9 |
| 20260505200030 | 88 | 267 | 4.0 | 16.0 | 0.00 | 0.00 | 0.00 | 57 | 1004.7 |
| 20260505195512 | 88 | 230 | 8.0 | 16.0 | 0.00 | 0.00 | 0.00 | 58 | 1004.9 |
| 20260505195011 | 88 | 262 | 6.0 | 15.0 | 0.00 | 0.00 | 0.00 | 58 | 1005.0 |
| 20260505194528 | 89 | 319 | 3.0 | 14.0 | 0.00 | 0.00 | 0.00 | 57 | 1004.9 |
| 20260505194018 | 88 | 345 | 3.0 | 14.0 | 0.00 | 0.00 | 0.00 | 59 | 1004.9 |
| 20260505193510 | 87 | 249 | 6.0 | 17.0 | 0.00 | 0.00 | 0.00 | 58 | 1005.0 |
| 20260505193034 | 86 | 253 | 8.0 | 17.0 | 0.00 | 0.00 | 0.00 | 58 | 1005.1 |
| 20260505192510 | 87 | 229 | 6.0 | 17.0 | 0.00 | 0.00 | 0.00 | 59 | 1005.0 |
| 20260505192014 | 86 | 309 | 7.0 | 17.0 | 0.00 | 0.00 | 0.00 | 60 | 1005.1 |
| 20260505191530 | 86 | 246 | 9.0 | 16.0 | 0.00 | 0.00 | 0.00 | 59 | 1005.2 |
| 20260505191013 | 86 | 257 | 7.0 | 17.0 | 0.00 | 0.00 | 0.00 | 61 | 1004.9 |
| 20260505190517 | 85 | 205 | 7.0 | 17.0 | 0.00 | 0.00 | 0.00 | 61 | 1004.9 |
| 20260505190030 | 85 | 229 | 8.0 | 17.0 | 0.00 | 0.00 | 0.00 | 61 | 1005.0 |
| 20260505185515 | 86 | 211 | 6.0 | 16.0 | 0.00 | 0.00 | 0.00 | 61 | 1005.2 |
| 20260505185012 | 85 | 230 | 6.0 | 17.0 | 0.00 | 0.00 | 0.00 | 62 | 1005.0 |
| 20260505184531 | 84 | 289 | 7.0 | 17.0 | 0.00 | 0.00 | 0.00 | 61 | 1005.3 |
| 20260505184013 | 84 | 228 | 10.0 | 17.0 | 0.00 | 0.00 | 0.00 | 61 | 1005.2 |
| 20260505183511 | 84 | 243 | 8.0 | 21.0 | 0.00 | 0.00 | 0.00 | 62 | 1005.4 |
| 20260505183045 | 84 | 238 | 8.0 | 21.0 | 0.00 | 0.00 | 0.00 | 62 | 1005.3 |
| 20260505182511 | 84 | 236 | 10.0 | 21.0 | 0.00 | 0.00 | 0.00 | 62 | 1005.2 |
| 20260505182014 | 84 | 244 | 6.0 | 18.0 | 0.00 | 0.00 | 0.00 | 62 | 1005.3 |
| 20260505181530 | 84 | 222 | 7.0 | 18.0 | 0.00 | 0.00 | 0.00 | 62 | 1005.3 |
| 20260505181018 | 84 | 237 | 8.0 | 18.0 | 0.00 | 0.00 | 0.00 | 62 | 1005.3 |
| 20260505180511 | 84 | 219 | 8.0 | 15.0 | 0.00 | 0.00 | 0.00 | 63 | 1005.3 |
| 20260505180030 | 83 | 228 | 7.0 | 18.0 | 0.00 | 0.00 | 0.00 | 64 | 1005.3 |
| 20260505175510 | 83 | 277 | 9.0 | 18.0 | 0.00 | 0.00 | 0.00 | 63 | 1005.4 |
| 20260505175013 | 83 | 246 | 5.0 | 20.0 | 0.00 | 0.00 | 0.00 | 65 | 1005.3 |
| 20260505174530 | 83 | 227 | 9.0 | 20.0 | 0.00 | 0.00 | 0.00 | 65 | 1005.1 |
| 20260505174014 | 83 | 241 | 11.0 | 20.0 | 0.00 | 0.00 | 0.00 | 65 | 1005.2 |
| 20260505173513 | 83 | 182 | 7.0 | 18.0 | 0.00 | 0.00 | 0.00 | 66 | 1005.5 |
| 20260505173028 | 82 | 242 | 10.0 | 18.0 | 0.00 | 0.00 | 0.00 | 66 | 1005.5 |
| 20260505172516 | 82 | 217 | 9.0 | 14.0 | 0.00 | 0.00 | 0.00 | 67 | 1005.4 |
| 20260505172014 | 82 | 221 | 6.0 | 17.0 | 0.00 | 0.00 | 0.00 | 68 | 1005.5 |
| 20260505171528 | 81 | 236 | 8.0 | 21.0 | 0.00 | 0.00 | 0.00 | 68 | 1005.3 |
| 20260505171014 | 81 | 225 | 10.0 | 21.0 | 0.00 | 0.00 | 0.00 | 68 | 1005.5 |
| 20260505170512 | 81 | 276 | 9.0 | 19.0 | 0.00 | 0.00 | 0.00 | 68 | 1005.5 |
| 20260505170031 | 80 | 221 | 9.0 | 19.0 | 0.00 | 0.00 | 0.00 | 69 | 1005.4 |
| 20260505165513 | 80 | 194 | 10.0 | 19.0 | 0.00 | 0.00 | 0.00 | 69 | 1005.6 |
| 20260505165014 | 80 | 224 | 8.0 | 21.0 | 0.00 | 0.00 | 0.00 | 69 | 1005.4 |
| 20260505164545 | 80 | 194 | 9.0 | 21.0 | 0.00 | 0.00 | 0.00 | 70 | 1005.5 |
| 20260505164011 | 80 | 203 | 9.0 | 18.0 | 0.00 | 0.00 | 0.00 | 70 | 1005.4 |
| 20260505163510 | 79 | 247 | 7.0 | 20.0 | 0.00 | 0.00 | 0.00 | 71 | 1005.3 |
| 20260505163028 | 79 | 244 | 11.0 | 20.0 | 0.00 | 0.00 | 0.00 | 70 | 1005.3 |
| 20260505162511 | 80 | 215 | 8.0 | 19.0 | 0.00 | 0.00 | 0.00 | 71 | 1005.2 |
| 20260505162013 | 79 | 255 | 8.0 | 19.0 | 0.00 | 0.00 | 0.00 | 72 | 1005.2 |
| 20260505161535 | 78 | 154 | 10.0 | 19.0 | 0.00 | 0.00 | 0.00 | 72 | 1005.3 |
| 20260505161010 | 79 | 222 | 9.0 | 19.0 | 0.00 | 0.00 | 0.00 | 71 | 1005.3 |
| 20260505160511 | 78 | 249 | 8.0 | 19.0 | 0.00 | 0.00 | 0.00 | 73 | 1005.3 |
| 20260505153029 | 76 | 190 | 10.0 | 22.0 | 0.00 | 0.00 | 0.00 | 74 | 1005.1 |
| 20260505152512 | 76 | 206 | 11.0 | 21.0 | 0.00 | 0.00 | 0.00 | 75 | 1005.0 |
| 20260505152010 | 76 | 249 | 10.0 | 21.0 | 0.00 | 0.00 | 0.00 | 75 | 1005.3 |
| 20260505151527 | 76 | 249 | 11.0 | 20.0 | 0.00 | 0.00 | 0.00 | 75 | 1005.2 |
| 20260505151010 | 76 | 233 | 12.0 | 20.0 | 0.00 | 0.00 | 0.00 | 75 | 1005.2 |
| 20260505150513 | 76 | 232 | 7.0 | 19.0 | 0.00 | 0.00 | 0.00 | 76 | 1005.4 |
| 20260505140511 | 73 | 185 | 8.0 | 20.0 | 0.00 | 0.00 | 0.00 | 81 | 1005.2 |
| 20260505125013 | 71 | 179 | 10.0 | 19.0 | 0.00 | 0.00 | 0.00 | 82 | 1004.6 |
| 20260505124536 | 71 | 207 | 8.0 | 19.0 | 0.00 | 0.00 | 0.00 | 82 | 1004.5 |
| 20260505124013 | 71 | 211 | 7.0 | 19.0 | 0.00 | 0.00 | 0.00 | 82 | 1004.7 |
| 20260505123512 | 71 | 193 | 9.0 | 18.0 | 0.00 | 0.00 | 0.00 | 82 | 1004.6 |
| 20260505123032 | 71 | 193 | 7.0 | 17.0 | 0.00 | 0.00 | 0.00 | 83 | 1004.7 |
| 20260505122512 | 71 | 215 | 10.0 | 18.0 | 0.00 | 0.00 | 0.00 | 82 | 1004.5 |
| 20260505122015 | 71 | 132 | 6.0 | 18.0 | 0.00 | 0.00 | 0.00 | 82 | 1004.3 |
| 20260505121533 | 71 | 172 | 8.0 | 21.0 | 0.00 | 0.00 | 0.00 | 82 | 1004.3 |
| 20260505121012 | 71 | 229 | 7.0 | 21.0 | 0.00 | 0.00 | 0.00 | 82 | 1004.4 |
| 20260505120511 | 71 | 234 | 12.0 | 21.0 | 0.00 | 0.00 | 0.00 | 82 | 1004.3 |
| 20260505120034 | 71 | 197 | 7.0 | 20.0 | 0.00 | 0.00 | 0.00 | 82 | 1004.3 |
| 20260505115513 | 71 | 218 | 11.0 | 20.0 | 0.00 | 0.00 | 0.00 | 82 | 1004.2 |
| 20260505115012 | 71 | 240 | 10.0 | 23.0 | 0.00 | 0.00 | 0.00 | 82 | 1004.2 |
| 20260505114530 | 71 | 219 | 9.0 | 23.0 | 0.00 | 0.00 | 0.00 | 82 | 1004.2 |
| 20260505114011 | 71 | 202 | 9.0 | 21.0 | 0.00 | 0.00 | 0.00 | 82 | 1004.2 |
| 20260505113514 | 71 | 215 | 10.0 | 19.0 | 0.00 | 0.00 | 0.00 | 82 | 1004.2 |
| 20260505113034 | 71 | 226 | 9.0 | 18.0 | 0.00 | 0.00 | 0.00 | 82 | 1004.2 |
| 20260505112512 | 71 | 210 | 8.0 | 17.0 | 0.00 | 0.00 | 0.00 | 82 | 1004.2 |
| 20260505112013 | 71 | 211 | 8.0 | 15.0 | 0.00 | 0.00 | 0.00 | 82 | 1004.1 |
| 20260505111529 | 71 | 197 | 8.0 | 22.0 | 0.00 | 0.00 | 0.00 | 82 | 1004.1 |
| 20260505111015 | 71 | 229 | 8.0 | 22.0 | 0.00 | 0.00 | 0.00 | 81 | 1004.0 |
| 20260505110511 | 71 | 178 | 10.0 | 21.0 | 0.00 | 0.00 | 0.00 | 81 | 1004.1 |
| 20260505102010 | 71 | 234 | 8.0 | 21.0 | 0.00 | 0.00 | 0.00 | 81 | 1004.1 |
| 20260505101529 | 71 | 230 | 8.0 | 21.0 | 0.00 | 0.00 | 0.00 | 81 | 1004.1 |
| 20260505101013 | 71 | 204 | 8.0 | 16.0 | 0.00 | 0.00 | 0.00 | 81 | 1004.3 |
| 20260505100512 | 71 | 226 | 8.0 | 19.0 | 0.00 | 0.00 | 0.00 | 80 | 1004.2 |
| 20260505100029 | 71 | 201 | 8.0 | 19.0 | 0.00 | 0.00 | 0.00 | 80 | 1004.3 |
| 20260505095512 | 71 | 224 | 9.0 | 18.0 | 0.00 | 0.00 | 0.00 | 80 | 1004.2 |
| 20260505095010 | 71 | 250 | 10.0 | 24.0 | 0.00 | 0.00 | 0.00 | 80 | 1004.2 |
| 20260505094533 | 71 | 144 | 8.0 | 24.0 | 0.00 | 0.00 | 0.00 | 80 | 1004.4 |
| 20260505094011 | 71 | 234 | 10.0 | 22.0 | 0.00 | 0.00 | 0.00 | 80 | 1004.3 |
| 20260505093513 | 71 | 226 | 10.0 | 25.0 | 0.00 | 0.00 | 0.00 | 80 | 1004.3 |
| 20260505093030 | 71 | 232 | 12.0 | 25.0 | 0.00 | 0.00 | 0.00 | 80 | 1004.3 |
| 20260505092517 | 71 | 222 | 11.0 | 24.0 | 0.00 | 0.00 | 0.00 | 80 | 1004.4 |
| 20260505092011 | 71 | 205 | 8.0 | 24.0 | 0.00 | 0.00 | 0.00 | 80 | 1004.5 |
| 20260505091530 | 71 | 244 | 11.0 | 24.0 | 0.00 | 0.00 | 0.00 | 80 | 1004.4 |
| 20260505091010 | 71 | 209 | 10.0 | 20.0 | 0.00 | 0.00 | 0.00 | 80 | 1004.4 |
| 20260505090510 | 72 | 206 | 10.0 | 22.0 | 0.00 | 0.00 | 0.00 | 80 | 1004.5 |
| 20260505090027 | 72 | 231 | 11.0 | 24.0 | 0.00 | 0.00 | 0.00 | 80 | 1004.6 |
| 20260505085513 | 72 | 193 | 13.0 | 24.0 | 0.00 | 0.00 | 0.00 | 80 | 1004.5 |
| 20260505085013 | 72 | 206 | 11.0 | 22.0 | 0.00 | 0.00 | 0.00 | 80 | 1004.5 |
| 20260505084542 | 72 | 233 | 12.0 | 20.0 | 0.00 | 0.00 | 0.00 | 79 | 1004.5 |
| 20260505084011 | 72 | 230 | 10.0 | 20.0 | 0.00 | 0.00 | 0.00 | 79 | 1004.6 |
| 20260505083511 | 72 | 228 | 10.0 | 20.0 | 0.00 | 0.00 | 0.00 | 79 | 1004.4 |
| 20260505083031 | 72 | 238 | 11.0 | 19.0 | 0.00 | 0.00 | 0.00 | 79 | 1004.5 |
| 20260505082513 | 72 | 215 | 6.0 | 19.0 | 0.00 | 0.00 | 0.00 | 79 | 1004.5 |
| 20260505082011 | 72 | 219 | 10.0 | 19.0 | 0.00 | 0.00 | 0.00 | 79 | 1004.5 |
| 20260505081530 | 72 | 235 | 9.0 | 22.0 | 0.00 | 0.00 | 0.00 | 78 | 1004.5 |
| 20260505081011 | 72 | 209 | 9.0 | 22.0 | 0.00 | 0.00 | 0.00 | 78 | 1004.6 |
| 20260505080512 | 72 | 228 | 10.0 | 22.0 | 0.00 | 0.00 | 0.00 | 78 | 1004.6 |
| 20260505080028 | 72 | 170 | 9.0 | 21.0 | 0.00 | 0.00 | 0.00 | 78 | 1004.6 |
| 20260505075510 | 72 | 232 | 12.0 | 21.0 | 0.00 | 0.00 | 0.00 | 78 | 1004.7 |
| 20260505075011 | 72 | 209 | 11.0 | 22.0 | 0.00 | 0.00 | 0.00 | 77 | 1004.6 |
| 20260505074531 | 72 | 193 | 11.0 | 22.0 | 0.00 | 0.00 | 0.00 | 77 | 1004.8 |
| 20260505074010 | 72 | 207 | 11.0 | 22.0 | 0.00 | 0.00 | 0.00 | 77 | 1004.8 |
| 20260505073512 | 73 | 220 | 12.0 | 20.0 | 0.00 | 0.00 | 0.00 | 77 | 1004.9 |
| 20260505073033 | 73 | 194 | 10.0 | 20.0 | 0.00 | 0.00 | 0.00 | 76 | 1005.1 |
| 20260505072511 | 73 | 255 | 12.0 | 20.0 | 0.00 | 0.00 | 0.00 | 76 | 1005.1 |
| 20260505072017 | 73 | 223 | 9.0 | 19.0 | 0.00 | 0.00 | 0.00 | 76 | 1005.4 |
| 20260505071529 | 73 | 198 | 10.0 | 21.0 | 0.00 | 0.00 | 0.00 | 76 | 1005.4 |
| 20260505071011 | 73 | 205 | 10.0 | 23.0 | 0.00 | 0.00 | 0.00 | 76 | 1005.4 |
| 20260505070517 | 73 | 205 | 10.0 | 23.0 | 0.00 | 0.00 | 0.00 | 75 | 1005.5 |
| 20260505070040 | 73 | 197 | 9.0 | 23.0 | 0.00 | 0.00 | 0.00 | 75 | 1005.6 |
| 20260505065514 | 73 | 191 | 10.0 | 21.0 | 0.00 | 0.00 | 0.00 | 75 | 1005.7 |
| 20260505065012 | 73 | 207 | 10.0 | 17.0 | 0.00 | 0.00 | 0.00 | 75 | 1005.7 |
| 20260505064530 | 73 | 217 | 8.0 | 16.0 | 0.00 | 0.00 | 0.00 | 74 | 1005.7 |
| 20260505064015 | 73 | 350 | 9.0 | 17.0 | 0.00 | 0.00 | 0.00 | 74 | 1005.9 |
| 20260505063511 | 73 | 350 | 8.0 | 17.0 | 0.00 | 0.00 | 0.00 | 74 | 1005.9 |
| 20260505063032 | 73 | 350 | 9.0 | 17.0 | 0.00 | 0.00 | 0.00 | 74 | 1005.9 |
| 20260505062512 | 73 | 193 | 8.0 | 16.0 | 0.00 | 0.00 | 0.00 | 73 | 1005.8 |
| 20260505062011 | 73 | 188 | 7.0 | 18.0 | 0.00 | 0.00 | 0.00 | 73 | 1006.0 |
| 20260505061528 | 74 | 164 | 8.0 | 18.0 | 0.00 | 0.00 | 0.00 | 73 | 1006.0 |
| 20260505061011 | 74 | 151 | 7.0 | 19.0 | 0.00 | 0.00 | 0.00 | 72 | 1006.0 |
| 20260505060512 | 74 | 205 | 8.0 | 23.0 | 0.00 | 0.00 | 0.00 | 72 | 1005.9 |
| 20260505060036 | 74 | 193 | 9.0 | 23.0 | 0.00 | 0.00 | 0.00 | 72 | 1005.9 |
| 20260505055513 | 74 | 174 | 6.0 | 15.0 | 0.00 | 0.00 | 0.00 | 72 | 1006.0 |
| 20260505055016 | 74 | 217 | 7.0 | 16.0 | 0.00 | 0.00 | 0.00 | 72 | 1005.9 |
| 20260505054531 | 74 | 350 | 9.0 | 20.0 | 0.00 | 0.00 | 0.00 | 71 | 1005.9 |
| 20260505054016 | 74 | 225 | 8.0 | 20.0 | 0.00 | 0.00 | 0.00 | 71 | 1006.0 |
| 20260505053512 | 74 | 350 | 9.0 | 16.0 | 0.00 | 0.00 | 0.00 | 71 | 1006.1 |
| 20260505053040 | 74 | 350 | 8.0 | 20.0 | 0.00 | 0.00 | 0.00 | 71 | 1006.0 |
| 20260505052512 | 74 | 350 | 8.0 | 20.0 | 0.00 | 0.00 | 0.00 | 70 | 1006.2 |
| 20260505052013 | 74 | 222 | 9.0 | 19.0 | 0.00 | 0.00 | 0.00 | 70 | 1006.2 |
| 20260505051528 | 74 | 202 | 10.0 | 19.0 | 0.00 | 0.00 | 0.00 | 70 | 1006.2 |
| 20260505051010 | 74 | 169 | 8.0 | 19.0 | 0.00 | 0.00 | 0.00 | 70 | 1006.2 |
| 20260505050512 | 75 | 164 | 9.0 | 22.0 | 0.00 | 0.00 | 0.00 | 70 | 1006.2 |
| 20260505041533 | 75 | 156 | 9.0 | 19.0 | 0.00 | 0.00 | 0.00 | 69 | 1006.3 |
| 20260505041010 | 75 | 218 | 7.0 | 20.0 | 0.00 | 0.00 | 0.00 | 69 | 1006.5 |
| 20260505040513 | 75 | 171 | 8.0 | 20.0 | 0.00 | 0.00 | 0.00 | 69 | 1006.4 |
| 20260505040028 | 75 | 200 | 6.0 | 15.0 | 0.00 | 0.00 | 0.00 | 68 | 1006.5 |